Shannon, Ireland

7:26 AM IST on August 21, 2017 (GMT +0100)
Shannon

Weather History for EINN - October, 2012

Change the Weather History Date:

Tuesday, October 23, 2012

  Actual Average Record
Temperature  
Mean Temperature 54 °F -  
Max Temperature 58 °F 53 °F 61 °F (2014)
Min Temperature 50 °F 41 °F 33 °F (2000)
Degree Days  
Heating Degree Days 11    
Growing Degree Days 4 (Base 50)    
Moisture  
Dew Point 52 °F    
Average Humidity 95    
Maximum Humidity 100    
Minimum Humidity 82    
Precipitation  
Precipitation 0.04 in 0.12 in - ()
Sea Level Pressure  
Sea Level Pressure 30.28 in    
Wind  
Wind Speed 4 mph ()    
Max Wind Speed 12 mph    
Max Gust Speed -    
Visibility 4.7 miles    
Events      
Averages and records for this station are not official NWS values.
T = Trace of Precipitation, MM = Missing Value Source: Averaged Metar Reports

Daily Weather History Graph

Daily Weather History Graph

Search for Another Location

Airport or City:

Trip Planner

Search our weather history database for the weather conditions in past years. The results will help you decide how hot, cold, wet, or windy it might be!

Date:

Astronomy

Oct. 23, 2012 Rise Set
Actual Time 8:16 AM IST 6:22 PM IST
Civil Twilight 7:41 AM IST 6:57 PM IST
Nautical Twilight 7:01 AM IST 7:37 PM IST
Astronomical Twilight 6:21 AM IST 8:17 PM IST
Moon 3:40 PM IST (10/23) 1:06 AM IST (10/23)
Length of Visible Light 11h 16m
Length of Day
10h 05m
Waxing Gibbous, 64% of the Moon is Illuminated
Oct 23
Waxing Gibbous
Oct 29
Full
Nov 7
Last Quarter
Nov 13
New
Nov 20
First Quarter

Hourly Weather History & Observations

Time (IST) Temp. Dew Point Humidity Pressure Visibility Wind Dir Wind Speed Gust Speed Precip Events Conditions
12:00 AM 51.8 °F 51.8 °F 100% 30.24 in 4.3 mi Calm Calm - N/A   Mostly Cloudy
12:30 AM 51.8 °F 51.8 °F 100% 30.24 in 4.3 mi NNE 1.2 mph - N/A   Mostly Cloudy
1:00 AM 51 °F 50 °F 97% 30.25 in 4 mi NE 4.5 mph - -   Mist
1:00 AM 51.8 °F 50.0 °F 94% 30.24 in 3.7 mi NE 4.6 mph - N/A   Mostly Cloudy
1:30 AM 51.8 °F 50.0 °F 94% 30.24 in 3.7 mi NW 2.3 mph - N/A   Mostly Cloudy
2:00 AM 50.0 °F 50.0 °F 100% 30.24 in 2.8 mi North 1.2 mph - N/A   Mostly Cloudy
2:30 AM 50.0 °F 50.0 °F 100% 30.24 in 2.5 mi NNE 3.5 mph - N/A   Mostly Cloudy
3:00 AM 50.0 °F 50.0 °F 100% 30.24 in 2.5 mi NE 6.9 mph - N/A   Mostly Cloudy
3:30 AM 50.0 °F 50.0 °F 100% 30.24 in 2.5 mi NE 5.8 mph - N/A   Mostly Cloudy
4:00 AM 50.0 °F 50.0 °F 100% 30.24 in 2.2 mi NE 5.8 mph - N/A   Mostly Cloudy
4:30 AM 50.0 °F 50.0 °F 100% 30.24 in 1.9 mi NNE 3.5 mph - N/A   Mostly Cloudy
5:00 AM 51.8 °F 50.0 °F 94% 30.24 in 1.9 mi NNW 3.5 mph - N/A   Mostly Cloudy
5:30 AM 50.0 °F 50.0 °F 100% 30.24 in 1.9 mi Calm Calm - N/A   Mostly Cloudy
6:00 AM 50.0 °F 50.0 °F 100% 30.24 in 1.9 mi Calm Calm - N/A   Mostly Cloudy
6:30 AM 50.0 °F 50.0 °F 100% 30.24 in 1.7 mi NW 3.5 mph - N/A   Mostly Cloudy
7:00 AM 51 °F 50 °F 97% 30.27 in 2 mi WNW 4.5 mph - -   Mist
7:00 AM 50.0 °F 50.0 °F 100% 30.24 in 6.2 mi WNW 3.5 mph - N/A   Mostly Cloudy
7:30 AM 50.0 °F 50.0 °F 100% 30.27 in 6.2 mi NW 2.3 mph - N/A   Overcast
8:00 AM 50.0 °F 50.0 °F 100% 30.27 in 2.5 mi NNW 3.5 mph - N/A   Overcast
8:30 AM 50.0 °F 50.0 °F 100% 30.27 in 3.1 mi NW 3.5 mph - N/A   Overcast
9:00 AM 51.8 °F 51.8 °F 100% 30.30 in 3.7 mi North 2.3 mph - N/A   Overcast
9:30 AM 51.8 °F 51.8 °F 100% 30.30 in 4.3 mi NE 1.2 mph - N/A   Mostly Cloudy
10:00 AM 53.6 °F 51.8 °F 94% 30.30 in 4.3 mi ENE 3.5 mph - N/A   Mostly Cloudy
10:30 AM 53.6 °F 53.6 °F 100% 30.30 in 3.7 mi East 1.2 mph - N/A   Mostly Cloudy
11:00 AM 53.6 °F 53.6 °F 100% 30.30 in 3.7 mi North 1.2 mph - N/A   Mostly Cloudy
11:30 AM 55.4 °F 53.6 °F 94% 30.30 in 3.7 mi NE 6.9 mph - N/A   Mostly Cloudy
12:00 PM 55.4 °F 53.6 °F 94% 30.30 in 6.2 mi NNE 5.8 mph - N/A   Mostly Cloudy
12:30 PM 55.4 °F 53.6 °F 94% 30.30 in 6.2 mi North 4.6 mph - N/A   Mostly Cloudy
1:00 PM 56 °F 54 °F 90% 30.32 in 6 mi NNE 4.5 mph - -   Mist
1:00 PM 55.4 °F 53.6 °F 94% 30.30 in 6.2 mi NNE 4.6 mph - N/A   Mostly Cloudy
1:30 PM 57.2 °F 53.6 °F 88% 30.30 in 6.2 mi NNE 6.9 mph - N/A   Overcast
2:00 PM 57.2 °F 53.6 °F 88% 30.30 in 6.2 mi NE 6.9 mph - N/A   Mostly Cloudy
2:30 PM 59.0 °F 53.6 °F 82% 30.30 in 6.2 mi NE 8.1 mph - N/A   Mostly Cloudy
3:00 PM 59.0 °F 53.6 °F 82% 30.30 in 6.2 mi NE 9.2 mph - N/A   Mostly Cloudy
3:30 PM 57.2 °F 53.6 °F 88% 30.30 in 6.2 mi NE 11.5 mph - N/A   Mostly Cloudy
4:00 PM 57.2 °F 53.6 °F 88% 30.30 in 6.2 mi NE 8.1 mph - N/A   Mostly Cloudy
4:30 PM 57.2 °F 53.6 °F 88% 30.30 in 6.2 mi ENE 8.1 mph - N/A   Mostly Cloudy
5:00 PM 57.2 °F 53.6 °F 88% 30.30 in 6.2 mi NE 9.2 mph - N/A   Mostly Cloudy
5:30 PM 57.2 °F 53.6 °F 88% 30.30 in 6.2 mi NE 9.2 mph - N/A   Overcast
6:00 PM 55.4 °F 53.6 °F 94% 30.30 in 6.2 mi NE 6.9 mph - N/A   Overcast
6:30 PM 55.4 °F 53.6 °F 94% 30.30 in 6.2 mi NNE 6.9 mph - N/A   Overcast
7:00 PM 55 °F 54 °F 97% 30.33 in 11 mi NNE 8.9 mph - -   Overcast
7:00 PM 55.4 °F 53.6 °F 94% 30.30 in 6.2 mi NNE 8.1 mph - N/A   Overcast
7:30 PM 55.4 °F 55.4 °F 100% 30.30 in 6.2 mi NNE 9.2 mph - N/A   Mostly Cloudy
8:00 PM 55.4 °F 53.6 °F 94% 30.30 in 5.0 mi NNE 6.9 mph - N/A   Mostly Cloudy
8:30 PM 55.4 °F 53.6 °F 94% 30.30 in 4.3 mi NNE 6.9 mph - N/A   Mostly Cloudy
9:00 PM 55.4 °F 53.6 °F 94% 30.30 in 4.3 mi NNE 6.9 mph - N/A   Mostly Cloudy
9:30 PM 55.4 °F 53.6 °F 94% 30.33 in 6.2 mi NNE 6.9 mph - N/A   Mostly Cloudy
10:00 PM 55.4 °F 53.6 °F 94% 30.30 in 6.2 mi NNE 8.1 mph - N/A   Mostly Cloudy
10:30 PM 55.4 °F 53.6 °F 94% 30.30 in 6.2 mi North 5.8 mph - N/A   Mostly Cloudy
11:00 PM 55.4 °F 53.6 °F 94% 30.30 in 5.6 mi NNE 6.9 mph - N/A   Overcast
11:30 PM 55.4 °F 51.8 °F 88% 30.30 in 5.0 mi NNE 6.9 mph - N/A   Mostly Cloudy